Regional Weather Roundup
Issued by NWS

Home | Current Version | Previous Version | Text Only | Print | Product List | Glossary On
Versions: 1 2 3 4 5 6 7 8 9 10 11 12 13 14 15 16 17 18 19 20 21 22 23 24 25 26 27 28 29 30 31 32 33 34 35 36 37 38 39 40 41 42 43 44 45 46 47 48 49 50
000
ASUS43 KMPX 221301
RWRMN
WEATHER ROUNDUP FOR MINNESOTA
NATIONAL WEATHER SERVICE TWIN CITIES/CHANHASSEN MN
800 AM CDT SUN APR 22 2018


NOTE: "FAIR" INDICATES FEW OR NO CLOUDS BELOW 12,000 FEET WITH NO
SIGNIFICANT WEATHER AND/OR OBSTRUCTIONS TO VISIBILITY. N/A MEANS
CURRENT SKY AND/OR WEATHER CONDITIONS ARE NOT AVAILABLE.

MNZ060>063-068>070-221400-
   Twin Cities Metro

CITY           SKY/WX    TMP DP  RH WIND       PRES   REMARKS
TWIN CITIES    FAIR      43  34  70 NE3       30.38R
ST PAUL        FAIR      39  34  82 CALM      30.39R
CRYSTAL        FAIR      38  30  73 CALM      30.37R
BLAINE         SUNNY     37  34  87 CALM      30.37R
LAKEVILLE      FAIR      34  34 100 CALM      30.37R
EDEN PRAIRIE   FAIR      41  31  67 NE5       30.37R
SOUTH ST PAUL  FAIR      40  33  78 CALM      30.38S
LAKE ELMO      FAIR      36  32  87 CALM      30.39S
$$
MNZ001>005-007-008-013>017-022>024-027-028-221400-
   Northwest Minnesota

CITY           SKY/WX    TMP DP  RH WIND       PRES   REMARKS
BEMIDJI        FAIR      40  32  73 S5        30.29R
HALLOCK        FAIR      39  37  93 S15       30.20S
ROSEAU         FAIR      41  36  81 S12       30.23S
WARROAD        FAIR      41  37  87 S5        30.24F
THIEF RVR FALL FAIR      39  33  79 S9        30.27R
CROOKSTON      FAIR      39  34  81 S12       30.27R
FOSSTON        FAIR      39  30  70 S8        30.28R
DETROIT LAKES  FAIR      37  32  81 SE7       30.30S
MOORHEAD       FAIR      37  32  81 S10       30.29R
PARK RAPIDS    FAIR      36  31  82 SE5       30.31R
MAHNOMEN       FAIR      38  31  76 S9        30.28R
$$
MNZ006-009>011-018-025>026-221400-
   North Central Minnesota

CITY           SKY/WX    TMP DP  RH WIND       PRES   REMARKS
BAUDETTE       FAIR      41  33  73 SW8       30.26S
FLAG ISLAND    FAIR      34  30  86 SE8       30.23S WCI  27
INTL FALLS     FAIR      41  29  62 S5        30.29S
WASKISH        PTSUNNY   45  32  61 S5        30.29R
BIG FORK       FAIR      39  28  65 CALM      30.31S
LONGVILLE      FAIR      32  28  86 CALM      30.32F
GRAND RAPIDS   FAIR      36  24  62 CALM      30.35S
CRANE LAKE     FAIR      28  27  93 S3        30.35R
ORR            FAIR      37  18  44 SE3       30.31R
COOK           FAIR      36  25  64 CALM      30.34R
WALKER         FAIR      37  31  79 CALM      30.31S
$$
MNZ012-019>021-037-221400-
   Northeast Minnesota

CITY           SKY/WX    TMP DP  RH WIND       PRES   REMARKS
DULUTH         FAIR      42  27  55 CALM      30.36R
ELY            FAIR      36  23  60 CALM      30.35R
HIBBING        FAIR      33  22  63 CALM      30.34S
EVELETH        FAIR      34  24  65 CALM      30.36S
DULUTH HARBOR  FAIR      34  27  75 CALM      30.40R
TWO HARBORS    FAIR      36  28  75 CALM      30.36R
SILVER BAY     FAIR      36  27  69 CALM      30.36R
GRAND MARAIS     N/A     35  26  69 CALM      30.38R
G MARAIS ARPRT FAIR      43  12  28 CALM      30.37R
$$
MNZ029>031-032-039>041-046>048-054>057-064-221400-
   West Central Minnesota

CITY           SKY/WX    TMP DP  RH WIND       PRES   REMARKS
FERGUS FALLS   FAIR      39  32  75 SE8       30.29F
WHEATON        SUNNY     36  30  80 SE3       30.33S
MORRIS         SUNNY     37  34  87 SE8       30.31S
ALEXANDRIA     FAIR      42  34  73 S5        30.33R
ELBOW LAKE     FAIR      38  32  79 E8        30.32S
WADENA         FAIR      36  34  93 CALM      30.32S
GLENWOOD       FAIR      36  34  93 SE5       30.34R
APPLETON       CLOUDY    37  34  87 CALM      30.33R
BENSON         SUNNY     39  36  87 CALM      30.34S
ORTONVILLE     SUNNY     36  34  93 SE5       30.32R
MADISON        CLOUDY    37  36  93 SE5       30.32S
WILLMAR        FAIR      39  36  87 E5        30.37R
$$
MNZ033>034-036-042>043-049>051-058-059-221400-
   Central Minnesota

CITY           SKY/WX    TMP DP  RH WIND       PRES   REMARKS
ST CLOUD       FAIR      36  33  89 CALM      30.36R
SAUK CENTRE    FAIR      34  33  95 CALM      30.34S FOG
PAYNESVILLE    FAIR      37  35  92 CALM      30.35S
AITKIN         FAIR      34  28  80 CALM      30.33S
PINE RIVER     FAIR      32  28  86 CALM      30.36S
BRAINERD       FAIR      36  30  79 CALM      30.34S
STAPLES        FAIR      36  32  87 S3        30.33S
LONG PRAIRIE   FAIR      34  32  93 CALM      30.34R
LITTLE FALLS   FAIR      34  28  80 CALM      30.35S
LITCHFIELD     FAIR      39  36  87 CALM      30.36R
BUFFALO        FAIR      36  30  81 CALM      30.38R
MAPLE LAKE     FAIR      36  33  90 CALM      30.37S
HUTCHINSON     FAIR      37  36  96 CALM      30.37R
$$
MNZ037-044-045-052-053-221400-
   East Central Minnesota

CITY           SKY/WX    TMP DP  RH WIND       PRES   REMARKS
PRINCETON      FAIR      37  32  81 CALM      30.37S
MORA           FAIR      32  27  80 CALM      30.38R
CAMBRIDGE      FAIR      39  27  60 CALM      30.38R
RUSH CITY      FAIR      34  26  71 CALM      30.38S
MOOSE LAKE     FAIR      32  25  74 CALM      30.35S
HINCKLEY       FAIR      34  27  75 CALM      30.37R
CLOQUET        FAIR      37  25  60 CALM      30.36S
MCGREGOR       FAIR      32  28  86 CALM      30.35S
$$
MNZ071>073-080-081-089-090-097-098-221400-
   Southwest Minnesota

CITY           SKY/WX    TMP DP  RH WIND       PRES   REMARKS
MONTEVIDEO     CLOUDY    36  36 100 S3        30.33S
GRANITE FALLS  CLOUDY    39  35  85 E3        30.35S
CANBY          CLOUDY    36  33  89 SE3       30.33S
MARSHALL       MOSUNNY   39  33  79 S6        30.33S
REDWOOD FALLS  SUNNY     37  35  92 E3        30.34R
OLIVIA         SUNNY     39  36  87 CALM      30.34R
PIPESTONE      SUNNY    N/A N/A N/A CALM      30.31R
WINDOM         PTSUNNY   36  21  55 CALM      30.33R
WORTHINGTON    SUNNY     37  34  89 N7        30.32R
JACKSON        SUNNY     34  32  93 CALM      30.33R
TRACY          SUNNY     37  34  89 CALM      30.32S
SLAYTON        CLOUDY    34  32  92 CALM      30.33R
$$
MNZ065>067-074>077-082>085-091>093-221400-
   South Central Minnesota

CITY           SKY/WX    TMP DP  RH WIND       PRES   REMARKS
MANKATO        FAIR      40  32  73 E7        30.35S
NEW ULM        SUNNY     37  34  87 NE3       30.35R
ST JAMES       PTSUNNY   30  30 100 CALM      30.35R FOG
FAIRMONT       CLOUDY    35  31  85 CALM      30.34R
GLENCOE        FAIR      38  38 100 CALM      30.36R
OWATONNA       FAIR      39  34  81 CALM      30.35S
WASECA         FAIR      39  32  75 NE7       30.36R
ALBERT LEA     FAIR      39  30  70 CALM      30.34R
$$
MNZ078>079-086>088-094>096-221400-
   Southeast Minnesota

CITY           SKY/WX    TMP DP  RH WIND       PRES   REMARKS
ROCHESTER      FAIR      41  34  76 NE5       30.36R
RED WING       FAIR      37  30  75 CALM      30.38R
STANTON        FAIR      34  32  91 CALM      30.36S
DODGE CENTER   FAIR      39  34  81 CALM      30.35S
WINONA         FAIR      36  34  93 CALM      30.36F
AUSTIN         FAIR      39  30  70 CALM      30.35R
PRESTON        FAIR      39  32  77 CALM      30.36R
$$
ABBREVIATIONS USED IN REMARKS
   TC - TEMPERATURES IN CELSIUS
  WCI - WIND CHILL INDEX
   HX - HEAT INDEX
  VSB - VISIBILITY
$$




USA.gov is the U.S. government's official web portal to all federal, state and local government web resources and services.